Flag for U.S.A. Weather past 2 weeks in Redmond, Washington, U.S.A.

Now
64 °F

More clouds than sun.


Feels Like: 64 °F
Forecast: 55 / 76 °F
Wind: 5 mph from Southwest

Location: Seattle Boeing Field

Current Time: Jul 22, 2014 at 10:30:35 AM

Latest Report: Jul 22, 2014 at 9:53 AM


Visibility: 10 mi

Pressure: 30.06 "Hg

Humidity: 68%

Dew point: 53 °F

Location of RedmondLocation

Historic Weather in Redmond — Graph

°F

Redmond temperature yesterday

Maximum temperature yesterday: 76 °F (at 4:53 PM)
Minimum temperature yesterday: 60 °F (at 12:53 AM)
Average temperature yesterday: 67 °F

Past Weeks' High & Low Weather Summary

 TemperatureHumidityPressure
High90 °F (Jul 12, 3:53 PM)84% (Jul 10, 5:53 AM)30.14 "Hg (Jul 10, 5:53 AM)
Low57 °F (Jul 18, 5:53 AM)27% (Jul 10, 4:53 PM)29.87 "Hg (Jul 10, 5:53 PM)
Average71 °F57%30.01 "Hg
* Reported Jul 7 8:53 AM — Jul 22 8:53 AM, Redmond, Weather by CustomWeather, © 2014

Note: Actual official high and low records may vary slightly from our data, if they occured in-between our weather recording intervals... More about our weather records

Advertising

Redmond weather history for previous 24 hours

 ConditionsComfort  
Time TempWeatherWind HumidityBarometerVisibility
8:53 AM
Jul 22
63 °FOvercast.3 mph70%30.05 "Hg10 mi
7:53 AM62 °FMostly cloudy.No wind73%30.04 "Hg10 mi
6:53 AM59 °FPartly sunny.No wind78%30.03 "Hg10 mi
5:53 AM59 °FPassing clouds.3 mph78%30.01 "Hg10 mi
4:53 AM61 °FPassing clouds.3 mph75%30.01 "Hg10 mi
3:53 AM61 °FPassing clouds.No wind75%30.01 "Hg10 mi
2:53 AM61 °FClear.No wind72%30.00 "Hg10 mi
1:53 AM62 °FClear.No wind70%30.01 "Hg10 mi
12:53 AM63 °FClear.No wind68%30.01 "Hg10 mi
11:53 PM
Jul 21
63 °FClear.5 mph68%30.00 "Hg10 mi
10:53 PM65 °FClear.3 mph61%29.99 "Hg10 mi
9:53 PM70 °FScattered clouds.No wind47%29.99 "Hg10 mi
8:53 PM72 °FSunny.3 mph43%29.97 "Hg10 mi
7:53 PM73 °FPassing clouds.5 mph41%29.97 "Hg10 mi
6:53 PM75 °FPassing clouds.3 mph37%29.97 "Hg10 mi
5:53 PM76 °FPassing clouds.5 mph36%29.96 "Hg10 mi
4:53 PM76 °FScattered clouds.7 mph35%29.97 "Hg10 mi
3:53 PM74 °FPassing clouds.3 mph38%29.99 "Hg10 mi
2:53 PM73 °FScattered clouds.5 mph41%30.01 "Hg10 mi
1:53 PM73 °FPassing clouds.6 mph43%30.02 "Hg10 mi
12:53 PM72 °FScattered clouds.3 mph44%30.03 "Hg10 mi
11:53 AM68 °FScattered clouds.5 mph53%30.03 "Hg10 mi
10:53 AM67 °FScattered clouds.3 mph55%30.03 "Hg10 mi
Weather by CustomWeather, © 2014

See weather overviewHow to use our weather pages